FW6002 Weather Reports


time (UTC)temp
F
wind
direction
speed
knots
gust
knots
rain 1hr
in
rain 24hr
in
rain mn
in
humidity
%
barometer
mb
20260510201604 77 18 1.7 7.0 0.00 0.00 0.00 76 1015.2
20260510201056 76 13 1.7 6.1 0.00 0.00 0.00 76 1015.1
20260510200556 76 213 1.7 7.0 0.00 0.00 0.00 74 1015.3
20260510200057 77 237 1.7 7.0 0.00 0.00 0.00 74 1015.1
20260510195556 76 228 1.7 6.1 0.00 0.00 0.00 74 1015.2
20260510195056 77 63 2.6 6.1 0.00 0.00 0.00 71 1014.9
20260510194554 77 218 0.9 6.1 0.00 0.00 0.00 72 1015.2
20260510194056 77 77 1.7 6.1 0.00 0.00 0.00 70 1015.3
20260510193556 78 44 0.9 6.1 0.00 0.00 0.00 72 1015.3
20260510193104 79 257 1.7 6.1 0.00 0.00 0.00 69 1015.3
20260510192557 78 175 1.7 6.1 0.00 0.00 0.00 72 1015.2
20260510192056 78 273 1.7 6.1 0.00 0.00 0.00 72 1015.1
20260510191559 80 212 0.9 4.3 0.00 0.00 0.00 72 1015.1
20260510191057 78 201 0.9 8.7 0.00 0.00 0.00 73 1015.0
20260510190556 79 102 1.7 8.7 0.00 0.00 0.00 71 1015.0
20260510185556 84 188 0.0 2.6 0.00 0.00 0.00 73 1014.9
20260510185057 82 120 0.9 4.3 0.00 0.00 0.00 74 1014.6
20260510184553 82 0 0.9 4.3 0.00 0.00 0.00 74 1014.8
20260510184056 82 181 0.0 3.5 0.00 0.00 0.00 74 1014.9
20260510183557 81 0 0.9 3.5 0.00 0.00 0.00 74 1014.7
20260510183055 81 151 0.0 2.6 0.00 0.00 0.00 75 1014.8
20260510182554 81 0 0.0 2.6 0.00 0.00 0.00 75 1014.7
20260510182057 81 0 0.0 2.6 0.00 0.00 0.00 75 1014.8
20260510181554 81 0 0.9 1.7 0.00 0.00 0.00 74 1014.9
20260510181103 82 0 0.0 1.7 0.00 0.00 0.00 75 1014.8
20260510180556 81 0 0.0 3.5 0.00 0.00 0.00 74 1014.9
20260510180058 82 0 0.0 3.5 0.00 0.00 0.00 75 1015.0
20260510175555 82 13 0.9 3.5 0.00 0.00 0.00 73 1015.1
20260510175053 82 325 0.0 3.5 0.00 0.00 0.00 75 1015.0
20260510174556 81 213 0.0 3.5 0.00 0.00 0.00 74 1015.0
20260510174055 81 318 0.0 2.6 0.00 0.00 0.00 75 1015.0
20260510173556 81 198 0.0 2.6 0.00 0.00 0.00 73 1015.0
20260510173111 82 257 0.9 2.6 0.00 0.00 0.00 72 1015.0
20260510172558 84 0 0.9 4.3 0.00 0.00 0.00 71 1014.7
20260510172057 83 250 0.0 5.2 0.00 0.00 0.00 73 1014.7
20260510171557 82 203 0.9 5.2 0.00 0.00 0.00 71 1014.6
20260510171056 82 183 0.9 5.2 0.00 0.00 0.00 72 1014.6
20260510170556 82 38 1.7 5.2 0.00 0.00 0.00 73 1014.4
20260510170054 82 232 0.9 5.2 0.00 0.00 0.00 75 1014.3
20260510165554 81 61 0.9 5.2 0.00 0.00 0.00 75 1014.3
20260510165053 82 46 0.9 6.1 0.00 0.00 0.00 74 1014.1
20260510164613 80 128 1.7 6.1 0.00 0.00 0.00 76 1013.8
20260510164054 81 98 0.9 6.1 0.00 0.00 0.00 76 1013.8
20260510163555 81 107 1.7 6.1 0.00 0.00 0.00 75 1013.6
20260510163103 80 57 1.7 7.8 0.00 0.00 0.00 76 1013.6
20260510162557 80 76 1.7 7.8 0.00 0.00 0.00 77 1013.5
20260510162057 80 206 2.6 7.8 0.00 0.00 0.00 76 1013.4
20260510161601 80 121 2.6 7.8 0.00 0.00 0.00 76 1013.5
20260510161056 79 53 1.7 7.8 0.00 0.00 0.00 77 1013.6
20260510160555 79 50 0.9 7.0 0.00 0.00 0.00 76 1013.7
20260510160059 79 344 1.7 7.0 0.00 0.00 0.00 78 1013.6
20260510155554 78 74 1.7 6.1 0.00 0.00 0.00 79 1013.6
20260510155055 78 76 0.9 11.3 0.00 0.00 0.00 80 1013.7
20260510154601 76 140 1.7 11.3 0.00 0.00 0.00 80 1013.6
20260510154055 76 121 0.9 4.3 0.00 0.00 0.00 81 1013.9
20260510153555 76 190 0.9 5.2 0.00 0.00 0.00 80 1014.1
20260510153100 76 66 1.7 5.2 0.00 0.00 0.00 80 1014.1
20260510152558 77 159 0.9 5.2 0.00 0.00 0.00 80 1014.1
20260510152056 76 207 1.7 5.2 0.00 0.00 0.00 80 1014.1
20260510151611 75 190 0.9 7.0 0.00 0.00 0.00 81 1014.1
20260510151100 74 313 2.6 7.8 0.00 0.00 0.00 81 1014.1
20260510150557 74 106 1.7 7.8 0.00 0.00 0.00 82 1014.2
20260510150105 74 61 0.9 8.7 0.00 0.00 0.00 82 1014.2
20260510145556 74 184 2.6 8.7 0.00 0.00 0.00 81 1014.0
20260510145056 74 192 1.7 6.1 0.00 0.00 0.00 81 1014.1
20260510144604 74 209 0.9 6.1 0.00 0.00 0.00 81 1014.2
20260510144056 74 178 0.9 7.8 0.00 0.00 0.00 81 1014.1
20260510143556 74 22 1.7 7.8 0.00 0.00 0.00 81 1014.2
20260510143057 73 269 0.9 6.1 0.00 0.00 0.00 81 1014.4
20260510142556 73 132 1.7 7.8 0.00 0.00 0.00 81 1014.7
20260510142056 73 161 1.7 7.8 0.00 0.00 0.00 81 1014.6
20260510141601 73 213 1.7 6.1 0.00 0.00 0.00 82 1014.3
20260510141056 73 171 0.9 6.1 0.00 0.00 0.00 82 1014.4
20260510140559 73 234 1.7 6.1 0.00 0.00 0.00 81 1014.2
20260510140100 74 0 1.7 6.1 0.00 0.00 0.00 81 1014.5
20260510135556 74 153 0.9 6.1 0.00 0.00 0.00 81 1014.4
20260510135056 73 63 0.9 4.3 0.00 0.00 0.00 82 1014.3
20260510134556 73 193 0.9 4.3 0.00 0.00 0.00 82 1014.3
20260510134055 72 144 0.9 8.7 0.00 0.00 0.00 83 1014.3
20260510133557 72 142 1.7 8.7 0.00 0.00 0.00 84 1014.4
20260510133055 71 189 0.9 7.0 0.00 0.00 0.00 85 1014.4
20260510132555 71 138 0.0 5.2 0.00 0.00 0.00 85 1014.5
20260510132058 71 159 1.7 8.7 0.00 0.00 0.00 86 1014.4
20260510131557 71 223 1.7 8.7 0.00 0.00 0.00 86 1014.2
20260510131056 71 195 0.9 4.3 0.00 0.00 0.00 86 1014.1
20260510130556 71 213 0.0 4.3 0.00 0.00 0.00 87 1013.9
20260510130054 71 162 0.9 6.1 0.00 0.00 0.00 88 1014.0
20260510125555 71 198 1.7 7.0 0.00 0.00 0.00 88 1014.0
20260510125056 72 180 1.7 7.0 0.00 0.00 0.00 89 1013.9
20260510124608 72 270 1.7 7.8 0.00 0.00 0.00 89 1013.8
20260510124056 72 217 0.9 7.8 0.00 0.00 0.00 89 1013.7
20260510123556 72 216 0.9 4.3 0.00 0.00 0.00 89 1013.6
20260510123055 72 266 0.0 6.1 0.00 0.00 0.00 89 1013.4
20260510122555 71 188 0.9 6.1 0.00 0.00 0.00 89 1013.3
20260510122054 71 154 0.9 6.1 0.00 0.00 0.00 89 1013.1
20260510121557 71 184 0.0 4.3 0.00 0.00 0.00 89 1013.1
20260510121055 71 154 0.9 5.2 0.00 0.00 0.00 89 1013.2
20260510120555 71 117 0.9 5.2 0.00 0.00 0.00 89 1013.0
20260510120059 71 210 0.9 4.3 0.00 0.00 0.00 89 1013.0
20260510115554 71 190 0.0 4.3 0.00 0.00 0.00 89 1012.9
20260510115054 70 0 0.9 4.3 0.00 0.00 0.00 89 1012.8
20260510114606 70 0 0.9 4.3 0.00 0.00 0.00 89 1013.0
20260510114055 70 185 0.0 4.3 0.00 0.00 0.00 89 1012.9
20260510113555 70 146 0.9 4.3 0.00 0.00 0.00 89 1012.7
20260510113059 70 0 0.0 3.5 0.00 0.00 0.00 89 1012.5
20260510112556 70 137 0.9 3.5 0.00 0.00 0.00 89 1012.5
20260510112055 70 143 0.0 3.5 0.00 0.00 0.00 89 1012.4
20260510111554 70 0 0.9 5.2 0.00 0.00 0.00 88 1012.6
20260510111054 70 0 0.9 5.2 0.00 0.00 0.00 88 1012.5
20260510110554 70 0 1.7 5.2 0.00 0.00 0.00 88 1012.4
20260510110056 70 159 0.9 4.3 0.00 0.00 0.00 88 1012.4
20260510105555 70 0 0.0 4.3 0.00 0.00 0.00 88 1012.3
20260510105058 70 0 0.9 4.3 0.00 0.00 0.00 88 1012.3
20260510104608 70 219 0.0 1.7 0.00 0.00 0.00 88 1012.2
20260510104058 70 0 0.0 2.6 0.00 0.00 0.00 88 1012.1
20260510103556 70 0 0.0 2.6 0.00 0.00 0.00 88 1011.9
20260510103055 70 0 0.0 1.7 0.00 0.00 0.00 88 1011.8
20260510102555 70 217 0.0 3.5 0.00 0.00 0.00 88 1011.8
20260510102054 70 0 0.0 3.5 0.00 0.00 0.00 88 1011.6
20260510101557 70 0 0.0 3.5 0.00 0.00 0.00 88 1011.5
20260510101055 70 0 0.0 2.6 0.00 0.00 0.00 88 1011.4
20260510100555 70 198 0.0 1.7 0.00 0.00 0.00 88 1011.3
20260510100058 70 217 0.0 1.7 0.00 0.00 0.00 88 1011.2
20260510095555 70 0 0.0 1.7 0.00 0.00 0.00 88 1011.1
20260510095055 70 246 0.0 1.7 0.00 0.00 0.00 88 1011.1
20260510094600 71 0 0.0 1.7 0.00 0.00 0.00 88 1011.0
20260510094056 71 0 0.0 3.5 0.00 0.00 0.00 89 1011.1
20260510093554 71 0 0.0 3.5 0.00 0.00 0.00 89 1010.9
20260510093057 70 240 0.0 0.9 0.00 0.00 0.00 88 1011.0
20260510092555 70 0 0.0 0.9 0.00 0.00 0.00 89 1010.8
20260510092058 70 0 0.0 0.0 0.00 0.00 0.00 88 1010.8
20260510091554 70 0 0.0 0.0 0.00 0.00 0.00 89 1010.6
20260510091054 70 0 0.0 0.0 0.00 0.00 0.00 88 1010.7
20260510090554 70 0 0.0 0.0 0.00 0.00 0.00 88 1010.6
20260510090056 70 0 0.0 0.0 0.00 0.00 0.00 88 1010.4
20260510085553 70 0 0.0 0.0 0.00 0.00 0.00 87 1010.1
20260510085054 70 0 0.0 0.0 0.00 0.00 0.00 86 1010.0
20260510084559 71 0 0.0 0.0 0.00 0.00 0.00 86 1009.8
20260510084055 71 0 0.0 0.9 0.00 0.00 0.00 86 1009.7
20260510083555 72 0 0.0 0.9 0.00 0.00 0.00 85 1009.8
20260510083101 72 0 0.0 0.9 0.00 0.00 0.00 86 1009.8
20260510082554 72 0 0.0 0.9 0.00 0.00 0.00 86 1009.6
20260510082054 72 0 0.0 0.9 0.00 0.00 0.00 86 1009.7
20260510081557 72 0 0.0 0.9 0.00 0.00 0.00 87 1009.9
20260510081054 72 0 0.0 0.9 0.00 0.00 0.00 87 1009.7
20260510080554 72 0 0.0 0.9 0.00 0.00 0.00 87 1009.8
20260510080059 72 88 0.0 0.9 0.00 0.00 0.00 87 1009.6
20260510075554 72 0 0.0 1.7 0.00 0.00 0.00 86 1009.8
20260510075058 72 0 0.0 2.6 0.00 0.00 0.00 86 1009.8
20260510074624 72 0 0.0 2.6 0.00 0.00 0.00 86 1009.8
20260510074053 72 0 0.0 1.7 0.00 0.00 0.00 85 1009.6
20260510073554 72 163 0.0 1.7 0.00 0.00 0.00 86 1009.6
20260510073058 72 0 0.0 1.7 0.00 0.00 0.00 86 1009.7
20260510072555 71 0 0.0 1.7 0.00 0.00 0.00 87 1009.8
20260510072058 71 0 0.0 0.0 0.00 0.00 0.00 87 1010.1
20260510071601 70 0 0.0 0.0 0.00 0.00 0.00 86 1010.1
20260510071058 70 0 0.0 0.0 0.00 0.00 0.00 85 1010.0
20260510070554 71 0 0.0 0.0 0.00 0.00 0.00 85 1009.6
20260510070057 71 0 0.0 0.0 0.00 0.00 0.00 84 1009.4
20260510065557 71 0 0.0 0.0 0.00 0.00 0.00 84 1009.1
20260510065055 71 0 0.0 0.0 0.00 0.00 0.00 83 1009.3
20260510064609 72 0 0.0 0.9 0.00 0.00 0.00 82 1009.3
20260510064054 72 0 0.0 0.9 0.00 0.00 0.00 82 1009.4
20260510063554 73 0 0.0 1.7 0.00 0.00 0.00 81 1009.4
20260510063103 73 0 0.0 2.6 0.00 0.00 0.00 81 1009.3
20260510062554 73 0 0.0 3.5 0.00 0.00 0.00 81 1009.2
20260510062054 73 55 0.0 3.5 0.00 0.00 0.00 80 1008.9
20260510061554 73 51 0.0 2.6 0.00 0.00 0.00 80 1008.9
20260510061055 73 232 0.0 2.6 0.00 0.00 0.00 80 1009.0
20260510060555 73 0 0.9 2.6 0.00 0.00 0.00 79 1008.9
20260510060058 73 52 0.9 2.6 0.00 0.00 0.00 79 1008.8
20260510055553 74 0 0.0 2.6 0.00 0.00 0.00 79 1008.8
20260510055055 73 0 0.0 3.5 0.00 0.00 0.00 79 1008.9
20260510054557 73 69 0.0 3.5 0.00 0.00 0.00 79 1008.8
20260510054054 73 0 0.0 2.6 0.00 0.00 0.00 79 1008.5
20260510053555 73 0 0.0 1.7 0.00 0.00 0.00 78 1008.5
20260510053057 73 0 0.0 1.7 0.00 0.00 0.00 78 1008.5
20260510052554 73 207 0.0 1.7 0.00 0.00 0.00 77 1008.6
20260510052054 73 0 0.0 1.7 0.00 0.00 0.00 77 1008.7
20260510051603 73 95 0.0 3.5 0.00 0.00 0.00 76 1008.6
20260510051055 73 0 0.0 3.5 0.00 0.00 0.00 75 1008.6
20260510050554 73 57 0.0 3.5 0.00 0.00 0.00 75 1008.6
20260510050056 73 116 0.0 2.6 0.00 0.00 0.00 75 1008.5
20260510045554 73 61 0.0 1.7 0.00 0.00 0.00 74 1008.6
20260510045054 72 0 0.0 1.7 0.00 0.00 0.00 74 1008.6
20260510044556 72 0 0.0 0.9 0.00 0.00 0.00 73 1008.8
20260510044055 72 0 0.0 1.7 0.00 0.00 0.00 72 1008.9
20260510043555 72 0 0.0 1.7 0.00 0.00 0.00 72 1008.7
20260510043103 72 0 0.0 1.7 0.00 0.00 0.00 71 1008.7
20260510042556 72 0 0.0 0.9 0.00 0.00 0.00 71 1008.8
20260510042054 72 0 0.0 0.0 0.00 0.00 0.00 71 1008.9
20260510041610 72 0 0.0 0.0 0.00 0.00 0.00 71 1008.9
20260510041057 72 0 0.0 0.9 0.00 0.00 0.00 71 1008.7
20260510040555 73 0 0.0 0.9 0.00 0.00 0.00 70 1008.9
20260510040057 73 0 0.0 0.9 0.00 0.00 0.00 70 1009.0
20260510035554 73 0 0.0 0.0 0.00 0.00 0.00 71 1009.0
20260510035054 73 0 0.0 0.0 0.00 0.00 0.00 70 1009.0
20260510034555 73 0 0.0 0.0 0.00 0.00 0.00 70 1009.0
20260510034055 73 0 0.0 0.0 0.00 0.00 0.00 70 1009.0
20260510033554 74 0 0.0 0.0 0.00 0.00 0.00 69 1008.9
20260510033057 74 0 0.0 0.9 0.00 0.00 0.00 69 1009.0
20260510032554 74 0 0.0 0.9 0.00 0.00 0.00 69 1008.9
20260510032058 74 0 0.0 0.0 0.00 0.00 0.00 69 1009.0
20260510031600 74 0 0.0 0.0 0.00 0.00 0.00 70 1009.0
20260510031054 74 0 0.0 0.0 0.00 0.00 0.00 69 1008.9
20260510030554 75 0 0.0 0.0 0.00 0.00 0.00 69 1008.8
20260510030058 75 0 0.0 0.0 0.00 0.00 0.00 68 1008.8
20260510025555 76 0 0.0 0.0 0.00 0.00 0.00 68 1008.7
20260510025059 76 0 0.0 0.0 0.00 0.00 0.00 67 1008.8
20260510024601 77 0 0.0 0.9 0.00 0.00 0.00 65 1008.8
20260510024054 77 0 0.0 0.9 0.00 0.00 0.00 64 1008.8
20260510023555 78 0 0.0 0.9 0.00 0.00 0.00 64 1008.6
20260510023053 78 0 0.0 0.9 0.00 0.00 0.00 63 1008.6
20260510022559 78 0 0.0 0.9 0.00 0.00 0.00 63 1008.6
20260510022053 78 0 0.0 0.9 0.00 0.00 0.00 63 1008.4
20260510021553 79 0 0.0 0.9 0.00 0.00 0.00 62 1008.3
20260510021059 79 136 0.0 3.5 0.00 0.00 0.00 62 1008.3
20260510020555 79 0 0.0 3.5 0.00 0.00 0.00 62 1008.2
20260510020056 80 0 0.0 1.7 0.00 0.00 0.00 61 1008.1
20260510015555 80 0 0.0 1.7 0.00 0.00 0.00 62 1008.1
20260510015054 80 0 0.0 1.7 0.00 0.00 0.00 60 1008.1
20260510014554 81 0 0.0 1.7 0.00 0.00 0.00 60 1007.9
20260510014055 81 0 0.0 1.7 0.00 0.00 0.00 60 1007.8
20260510013555 81 0 0.0 1.7 0.00 0.00 0.00 59 1007.7
20260510013105 82 0 0.0 1.7 0.00 0.00 0.00 59 1007.7
20260510012554 82 79 0.0 2.6 0.00 0.00 0.00 59 1007.7
20260510012054 83 271 0.0 2.6 0.00 0.00 0.00 59 1007.8
20260510011600 83 132 0.0 2.6 0.00 0.00 0.00 59 1007.6
20260510011056 83 0 0.0 2.6 0.00 0.00 0.00 59 1007.5
20260510010557 83 65 0.0 1.7 0.00 0.00 0.00 59 1007.5
20260510010110 84 0 0.0 0.9 0.00 0.00 0.00 58 1007.5
20260510005555 84 0 0.0 0.9 0.00 0.00 0.00 57 1007.5
20260510005054 84 0 0.0 1.7 0.00 0.00 0.00 56 1007.5
20260510004600 85 0 0.0 1.7 0.00 0.00 0.00 56 1007.4
20260510004054 85 0 0.0 1.7 0.00 0.00 0.00 56 1007.3
20260510003555 85 0 0.0 3.5 0.00 0.00 0.00 56 1007.4
20260510003059 86 171 0.9 3.5 0.00 0.00 0.00 54 1007.4
20260510002558 86 0 0.0 3.5 0.00 0.00 0.00 55 1007.4
20260510002054 85 0 0.0 2.6 0.00 0.00 0.00 55 1007.4
20260510001555 86 0 0.0 2.6 0.00 0.00 0.00 55 1007.4
20260510001052 86 0 0.0 2.6 0.00 0.00 0.00 53 1007.4
20260510000553 86 192 0.0 0.9 0.00 0.00 0.00 54 1007.3
20260510000108 85 0 0.0 1.7 0.00 0.00 0.00 55 1007.4
20260509235552 85 0 0.0 1.7 0.00 0.00 0.00 56 1007.4
20260509235052 85 0 0.0 0.9 0.00 0.00 0.00 54 1007.2
20260509234604 86 0 0.0 0.9 0.00 0.00 0.00 53 1007.3
20260509234055 86 0 0.0 1.7 0.00 0.00 0.00 53 1007.2
20260509233556 86 0 0.0 1.7 0.00 0.00 0.00 53 1007.3
20260509233053 86 244 0.0 1.7 0.00 0.00 0.00 51 1007.3
20260509232555 86 0 0.0 1.7 0.00 0.00 0.00 51 1007.3
20260509232055 86 0 0.0 1.7 0.00 0.00 0.00 52 1007.3
20260509231557 86 0 0.0 0.9 0.00 0.00 0.00 51 1007.4
20260509231054 87 0 0.0 0.9 0.00 0.00 0.00 50 1007.3
20260509230554 87 0 0.0 0.9 0.00 0.00 0.00 50 1007.3
20260509225555 87 0 0.0 1.7 0.00 0.00 0.00 47 1007.5
20260509225054 87 0 0.0 1.7 0.00 0.00 0.00 51 1007.3
20260509224601 87 0 0.0 1.7 0.00 0.00 0.00 50 1007.4
20260509224055 87 0 0.0 0.9 0.00 0.00 0.00 49 1007.4
20260509223552 87 0 0.0 0.9 0.00 0.00 0.00 50 1007.4
20260509223054 87 0 0.0 1.7 0.00 0.00 0.00 51 1007.4
20260509222552 87 0 0.0 1.7 0.00 0.00 0.00 50 1007.5
20260509222052 87 0 0.0 1.7 0.00 0.00 0.00 49 1007.4
20260509221612 88 0 0.0 0.9 0.00 0.00 0.00 51 1007.4
20260509221055 88 232 0.0 1.7 0.00 0.00 0.00 51 1007.4
20260509220555 87 0 0.0 1.7 0.00 0.00 0.00 49 1007.5
20260509220105 87 0 0.0 1.7 0.00 0.00 0.00 50 1007.5
20260509215555 88 0 0.0 1.7 0.00 0.00 0.00 50 1007.5
20260509215055 88 0 0.0 1.7 0.00 0.00 0.00 50 1007.5
20260509214602 88 0 0.0 1.7 0.00 0.00 0.00 48 1007.6
20260509214055 88 0 0.0 1.7 0.00 0.00 0.00 49 1007.7
20260509213554 88 0 0.0 2.6 0.00 0.00 0.00 48 1007.7
20260509213102 89 320 0.0 2.6 0.00 0.00 0.00 46 1007.9
20260509212554 89 0 0.0 3.5 0.00 0.00 0.00 48 1007.7
20260509212057 89 0 0.0 3.5 0.00 0.00 0.00 45 1008.0
20260509211557 89 0 0.0 3.5 0.00 0.00 0.00 46 1008.1
20260509211055 89 61 0.9 3.5 0.00 0.00 0.00 46 1008.1
20260509210553 89 179 0.0 2.6 0.00 0.00 0.00 47 1008.2
20260509210104 89 198 0.0 1.7 0.00 0.00 0.00 47 1008.2
20260509205554 90 0 0.0 1.7 0.00 0.00 0.00 52 1008.3
20260509205052 90 0 0.0 1.7 0.00 0.00 0.00 53 1008.4
20260509204601 90 0 0.0 1.7 0.00 0.00 0.00 57 1008.5
20260509204052 90 0 0.0 1.7 0.00 0.00 0.00 53 1008.5
20260509203554 89 352 0.0 1.7 0.00 0.00 0.00 50 1008.6
20260509203058 89 0 0.0 0.9 0.00 0.00 0.00 50 1008.8
20260509202557 89 0 0.0 1.7 0.00 0.00 0.00 50 1008.7
20260509202058 90 0 0.0 1.7 0.00 0.00 0.00 54 1008.8